星链-3148 (STARLINK-3148 )

导读 | 星芒AI

STARLINK-3148 是 SpaceX Starlink 卫星互联网项目中的一颗低轨卫星,属于第 14 批部署的星链卫星群。该卫星于 2023 年发射,运行在约 550 公里的轨道高度,旨在为全球用户提供高速、低延迟的宽带互联网服务。作为星链计划的重要组成部分,STARLINK-3148 与其他卫星协同工作,增强网络覆盖,特别是在偏远和网络基础设施薄弱的地区。该计划最终目标是构建由数千颗卫星组成的星座,实现全球无缝互联网连接。

基本信息
目录编号:
49736
目录名称:
STARLINK-3148
国际标识:
2021-115N
轨道中心:
EARTH
卫星名称:
星链-3148
卫星全名:
星链-3148 (STARLINK-3148 )
卫星状态:
在轨 (已飞行1479 天)
发射日期:
2021-12-02 UTC
国别 :
美国 (US)
星等 :
--
轨道信息
数据来源 国际轨道数据 AOE轨道数据
星历时间 2025-12-19T04:25:43+0800
1天前
查看轨道信息
2025-12-17T14:00:00+0800
2天前
查看轨道信息
半长轴 6917.871km 6917.859km
偏心率 0.0002209 0.0002441
轨道倾角 53.217° 53.218°
近地点辐角 100.880° 95.326°
升交点赤经 151.902° 159.090°
平近点角 259.244° 202.703°
近地点 538.207km 538.035km
远地点 541.265km 541.413km
周期 95.437分钟 95.437分钟
每日圈数 15.088431 15.088471
详细信息
固有亮度:
5
最大亮度:
2.5
卫星平台:
Starlink v1.5
覆盖范围:
全球
运营商:
太空探索技术公司
运营商所在国:
美国
制造商(研发单位):
太空探索技术公司
制造商所在国:
美国
使用方式:
暂无
卫星简介
星链(Starlink)计划是由太空探索技术公司(SpaceX)提出的一个巨型低轨卫星互联网星座项目,计划在2019年至2024年间在太空搭建由约1.2万颗卫星组成的“星链”网络,其中1584颗将部署在地球上空550千米处的近地轨道,并从2020年开始工作。该卫星仍在工作。
2D轨道图
3D轨道图
轨道高度分析图
轨道倾角分析图
轨道综合分析图
查看轨道综合分析图